GAF1 EDDL-HEMA

Flight info

Callsign GAF1
Flight time 4h 23m
Altitude 41000
Route DODEN7Z DODEN Y853 BOMBI DCT DETEV DCT DINKU DCT BESNI DCT GOMIG DCT GOLVA DCT RAVAK DCT NISVA DCT VIT DCT RODIP UN131 PIBOM DCT BELGI UN131 KULAR UT39 TOMBI DCT DASNI M855 KOMEZ DCT RASDA A16 CVO A727 LXR M999 ELELI V730 MAK
Aircraft A359/H-SDE2E3GHIJ3J4J5LM1ORWXY/LB1D1

Departure

Time 2026-05-08 09:55
Airport Düsseldorf Airport (EDDL)

Arrival

Time 2026-05-08 14:18
Airport Marsa Alam International Airport (HEMA)
Time Latitude Longitude Altitude Speed Heading
2026-05-08 09:26 51.28765 6.77664 131 ft 0 kts 323°
2026-05-08 09:43 51.28750 6.77683 127 ft 4 kts 322°
2026-05-08 09:43 51.28736 6.77702 135 ft 4 kts 320°
2026-05-08 09:43 51.28716 6.77730 136 ft 4 kts 314°
2026-05-08 09:43 51.28700 6.77760 136 ft 3 kts 297°
2026-05-08 09:44 51.28696 6.77786 136 ft 3 kts 258°
2026-05-08 09:44 51.28705 6.77815 136 ft 4 kts 232°
2026-05-08 09:44 51.28721 6.77849 136 ft 4 kts 232°
2026-05-08 09:44 51.28738 6.77884 136 ft 4 kts 232°
2026-05-08 09:45 51.28755 6.77919 136 ft 4 kts 232°
2026-05-08 09:45 51.28769 6.77948 136 ft 3 kts 232°
2026-05-08 09:45 51.28778 6.77966 136 ft 2 kts 232°
2026-05-08 09:45 51.28784 6.77980 136 ft 2 kts 232°
2026-05-08 09:46 51.28789 6.77991 136 ft 0 kts 232°
2026-05-08 09:47 51.28788 6.77988 136 ft 3 kts 232°
2026-05-08 09:47 51.28775 6.77961 136 ft 1 kts 235°
2026-05-08 09:48 51.28772 6.77947 136 ft 4 kts 248°
2026-05-08 09:48 51.28772 6.77870 135 ft 8 kts 291°
2026-05-08 09:48 51.28823 6.77791 134 ft 14 kts 322°
2026-05-08 09:48 51.28885 6.77704 135 ft 11 kts 306°
2026-05-08 09:49 51.28878 6.77596 136 ft 12 kts 240°
2026-05-08 09:49 51.28811 6.77452 136 ft 18 kts 232°
2026-05-08 09:49 51.28764 6.77268 136 ft 14 kts 245°
2026-05-08 09:49 51.28703 6.77184 135 ft 12 kts 217°
2026-05-08 09:50 51.28630 6.77071 136 ft 17 kts 231°
2026-05-08 09:50 51.28551 6.76904 133 ft 15 kts 232°
2026-05-08 09:50 51.28484 6.76766 130 ft 17 kts 232°
2026-05-08 09:50 51.28409 6.76611 122 ft 17 kts 234°
2026-05-08 09:51 51.28334 6.76450 123 ft 19 kts 233°
2026-05-08 09:51 51.28253 6.76280 131 ft 20 kts 233°
2026-05-08 09:51 51.28169 6.76104 136 ft 20 kts 233°
2026-05-08 09:51 51.28080 6.75918 136 ft 22 kts 233°
2026-05-08 09:52 51.27986 6.75720 136 ft 23 kts 233°
2026-05-08 09:52 51.27904 6.75548 127 ft 18 kts 233°
2026-05-08 09:52 51.27847 6.75423 128 ft 7 kts 242°
2026-05-08 09:52 51.27862 6.75345 125 ft 9 kts 311°
2026-05-08 09:53 51.27927 6.75282 124 ft 13 kts 333°
2026-05-08 09:53 51.28014 6.75310 123 ft 11 kts 46°
2026-05-08 09:53 51.28028 6.75339 126 ft 0 kts 52°
2026-05-08 09:54 51.28032 6.75348 124 ft 9 kts 52°
2026-05-08 09:54 51.28216 6.75735 137 ft 80 kts 53°
2026-05-08 09:54 51.28688 6.76727 137 ft 143 kts 53°
2026-05-08 09:54 51.29375 6.78144 508 ft 163 kts 50°
2026-05-08 09:55 51.30056 6.79530 1375 ft 163 kts 49°
2026-05-08 09:55 51.30792 6.81050 1727 ft 181 kts 49°
2026-05-08 09:55 51.31612 6.82709 2109 ft 200 kts 48°
2026-05-08 09:55 51.32536 6.84517 2420 ft 221 kts 49°
2026-05-08 09:56 51.33514 6.86541 2786 ft 238 kts 52°
2026-05-08 09:56 51.34463 6.88812 3208 ft 253 kts 56°
2026-05-08 09:56 51.35313 6.91369 3612 ft 269 kts 70°
2026-05-08 09:56 51.35487 6.94373 4169 ft 277 kts 96°
2026-05-08 09:57 51.34735 7.00441 5562 ft 282 kts 103°
2026-05-08 09:57 51.34293 7.03547 6285 ft 284 kts 104°
2026-05-08 09:57 51.33865 7.06682 6987 ft 293 kts 102°
2026-05-08 09:58 51.33487 7.09893 7672 ft 295 kts 101°
2026-05-08 09:58 51.33139 7.13144 8461 ft 299 kts 99°
2026-05-08 09:58 51.32753 7.16384 9213 ft 301 kts 107°
2026-05-08 09:58 51.31765 7.19290 9854 ft 300 kts 131°
2026-05-08 09:59 51.30330 7.21750 10444 ft 308 kts 136°
2026-05-08 09:59 51.28774 7.24205 10771 ft 322 kts 137°
2026-05-08 09:59 51.27133 7.26760 11149 ft 336 kts 138°
2026-05-08 09:59 51.25420 7.29398 11427 ft 349 kts 138°
2026-05-08 10:00 51.23645 7.32146 11678 ft 362 kts 137°
2026-05-08 10:00 51.22054 7.34637 11926 ft 372 kts 137°
2026-05-08 10:00 51.20198 7.37577 12326 ft 379 kts 137°
2026-05-08 10:00 51.18311 7.40542 12828 ft 383 kts 137°
2026-05-08 10:01 51.16400 7.43525 13333 ft 386 kts 137°
2026-05-08 10:01 51.14464 7.46520 13786 ft 388 kts 138°
2026-05-08 10:01 51.12508 7.49510 14235 ft 391 kts 137°
2026-05-08 10:01 51.10541 7.52514 14698 ft 394 kts 138°
2026-05-08 10:02 51.08557 7.55542 15155 ft 396 kts 138°
2026-05-08 10:02 51.06563 7.58583 15593 ft 399 kts 137°
2026-05-08 10:02 51.04552 7.61652 16044 ft 402 kts 137°
2026-05-08 10:02 51.02533 7.64726 16478 ft 404 kts 138°
2026-05-08 10:03 51.00513 7.67784 16940 ft 406 kts 138°
2026-05-08 10:03 50.98457 7.70890 17389 ft 409 kts 137°
2026-05-08 10:03 50.96313 7.73863 17793 ft 410 kts 145°
2026-05-08 10:03 50.93934 7.76403 18246 ft 412 kts 149°
2026-05-08 10:04 50.91501 7.78809 18633 ft 414 kts 150°
2026-05-08 10:04 50.89033 7.81211 19038 ft 417 kts 150°
2026-05-08 10:04 50.86552 7.83629 19445 ft 419 kts 150°
2026-05-08 10:04 50.84069 7.86068 19832 ft 421 kts 150°
2026-05-08 10:05 50.81566 7.88520 20221 ft 424 kts 150°
2026-05-08 10:05 50.79054 7.90975 20607 ft 426 kts 150°
2026-05-08 10:05 50.76520 7.93452 20929 ft 429 kts 150°
2026-05-08 10:05 50.73985 7.95932 21250 ft 431 kts 150°
2026-05-08 10:06 50.71431 7.98420 21573 ft 433 kts 150°
2026-05-08 10:06 50.68856 8.00927 21887 ft 435 kts 150°
2026-05-08 10:06 50.66279 8.03436 22192 ft 438 kts 150°
2026-05-08 10:06 50.63679 8.05965 22477 ft 440 kts 150°
2026-05-08 10:07 50.61076 8.08525 22786 ft 442 kts 148°
2026-05-08 10:07 50.58581 8.11368 23066 ft 445 kts 144°
2026-05-08 10:07 50.56153 8.14409 23357 ft 447 kts 142°
2026-05-08 10:07 50.53763 8.17547 23642 ft 449 kts 141°
2026-05-08 10:08 50.51406 8.20689 23921 ft 450 kts 141°
2026-05-08 10:08 50.49021 8.23883 24201 ft 452 kts 141°
2026-05-08 10:08 50.46620 8.27083 24498 ft 454 kts 141°
2026-05-08 10:08 50.44200 8.30282 24779 ft 455 kts 141°
2026-05-08 10:09 50.41773 8.33472 24969 ft 456 kts 141°
2026-05-08 10:09 50.39336 8.36660 25002 ft 457 kts 141°
2026-05-08 10:09 50.36891 8.39841 24997 ft 457 kts 142°
2026-05-08 10:09 50.34438 8.43021 24997 ft 458 kts 142°
2026-05-08 10:10 50.31983 8.46205 25000 ft 458 kts 142°
2026-05-08 10:10 50.29531 8.49378 24998 ft 458 kts 142°
2026-05-08 10:10 50.27069 8.52552 25001 ft 458 kts 142°
2026-05-08 10:10 50.24612 8.55722 24997 ft 459 kts 142°
2026-05-08 10:11 50.22154 8.58890 24997 ft 458 kts 142°
2026-05-08 10:11 50.19692 8.62058 25003 ft 458 kts 142°
2026-05-08 10:11 50.17235 8.65214 25005 ft 457 kts 142°
2026-05-08 10:11 50.14780 8.68365 25000 ft 457 kts 142°
2026-05-08 10:12 50.12328 8.71502 24996 ft 457 kts 142°
2026-05-08 10:12 50.09875 8.74643 25002 ft 457 kts 142°
2026-05-08 10:12 50.07529 8.77996 25002 ft 458 kts 135°
2026-05-08 10:12 50.05475 8.81795 25020 ft 460 kts 127°
2026-05-08 10:13 50.03786 8.86015 24994 ft 460 kts 120°
2026-05-08 10:13 50.02292 8.90417 24999 ft 461 kts 117°
2026-05-08 10:13 50.00879 8.94905 24995 ft 461 kts 116°
2026-05-08 10:13 49.99534 8.99339 24996 ft 461 kts 116°
2026-05-08 10:14 49.98174 9.03857 25006 ft 461 kts 116°
2026-05-08 10:14 49.96807 9.08355 25003 ft 461 kts 116°
2026-05-08 10:14 49.95423 9.12849 25001 ft 461 kts 116°
2026-05-08 10:14 49.94032 9.17327 25002 ft 461 kts 116°
2026-05-08 10:15 49.92634 9.21805 25017 ft 461 kts 116°
2026-05-08 10:15 49.91233 9.26280 24998 ft 462 kts 117°
2026-05-08 10:15 49.89820 9.30757 25018 ft 462 kts 117°
2026-05-08 10:15 49.88405 9.35230 25000 ft 462 kts 117°
2026-05-08 10:16 49.86986 9.39695 24996 ft 462 kts 117°
2026-05-08 10:16 49.85560 9.44172 24999 ft 463 kts 117°
2026-05-08 10:16 49.84128 9.48623 25001 ft 462 kts 118°
2026-05-08 10:16 49.82471 9.52896 25018 ft 461 kts 126°
2026-05-08 10:17 49.80474 9.56760 25000 ft 459 kts 134°
2026-05-08 10:17 49.78266 9.60318 25004 ft 459 kts 136°
2026-05-08 10:17 49.75966 9.63753 25230 ft 461 kts 138°
2026-05-08 10:17 49.73614 9.67128 25575 ft 461 kts 139°
2026-05-08 10:18 49.71236 9.70487 25873 ft 463 kts 139°
2026-05-08 10:18 49.68854 9.73855 26140 ft 465 kts 139°
2026-05-08 10:18 49.66471 9.77251 26400 ft 467 kts 139°
2026-05-08 10:18 49.64084 9.80667 26703 ft 469 kts 138°
2026-05-08 10:19 49.61688 9.84097 26984 ft 471 kts 138°
2026-05-08 10:19 49.59279 9.87546 27278 ft 473 kts 138°
2026-05-08 10:19 49.56870 9.91004 27577 ft 475 kts 138°
2026-05-08 10:20 49.52017 9.97971 28156 ft 479 kts 138°
2026-05-08 10:20 49.49566 10.01481 28468 ft 481 kts 138°
2026-05-08 10:20 49.47140 10.04949 28760 ft 484 kts 138°
2026-05-08 10:20 49.44671 10.08474 29042 ft 486 kts 139°
2026-05-08 10:21 49.42189 10.12009 29312 ft 488 kts 138°
2026-05-08 10:21 49.39691 10.15565 29581 ft 490 kts 139°
2026-05-08 10:21 49.37182 10.19130 29866 ft 492 kts 138°
2026-05-08 10:21 49.34646 10.22728 30144 ft 494 kts 139°
2026-05-08 10:22 49.32114 10.26313 30418 ft 496 kts 139°
2026-05-08 10:22 49.29576 10.29898 30674 ft 498 kts 139°
2026-05-08 10:22 49.27046 10.33466 30933 ft 501 kts 139°
2026-05-08 10:22 49.24483 10.37078 31217 ft 502 kts 139°
2026-05-08 10:23 49.21925 10.40739 31468 ft 505 kts 137°
2026-05-08 10:23 49.19386 10.44461 31735 ft 507 kts 137°
2026-05-08 10:23 49.16852 10.48232 31990 ft 509 kts 137°
2026-05-08 10:23 49.14320 10.52023 32229 ft 511 kts 137°
2026-05-08 10:24 49.11779 10.55826 32432 ft 512 kts 137°
2026-05-08 10:24 49.09231 10.59640 32674 ft 513 kts 136°
2026-05-08 10:24 49.06685 10.63439 33018 ft 512 kts 137°
2026-05-08 10:24 49.04129 10.67225 33357 ft 511 kts 137°
2026-05-08 10:25 49.01570 10.70994 33655 ft 511 kts 137°
2026-05-08 10:25 48.99011 10.74752 33990 ft 510 kts 137°
2026-05-08 10:25 48.96458 10.78500 34323 ft 510 kts 137°
2026-05-08 10:25 48.93931 10.82198 34648 ft 509 kts 137°
2026-05-08 10:26 48.91383 10.85926 35005 ft 508 kts 137°
2026-05-08 10:26 48.88836 10.89646 35335 ft 507 kts 137°
2026-05-08 10:26 48.86299 10.93352 35654 ft 507 kts 137°
2026-05-08 10:26 48.83754 10.97062 35992 ft 506 kts 137°
2026-05-08 10:27 48.81214 11.00756 36331 ft 506 kts 137°
2026-05-08 10:27 48.78669 11.04437 36622 ft 505 kts 137°
2026-05-08 10:27 48.76133 11.08116 36903 ft 505 kts 137°
2026-05-08 10:27 48.73592 11.11800 37228 ft 505 kts 137°
2026-05-08 10:28 48.71057 11.15482 37519 ft 505 kts 137°
2026-05-08 10:28 48.68518 11.19161 37800 ft 505 kts 137°
2026-05-08 10:28 48.66047 11.22941 38031 ft 506 kts 133°
2026-05-08 10:28 48.63887 11.27150 38250 ft 507 kts 124°
2026-05-08 10:29 48.62077 11.31725 38515 ft 508 kts 120°
2026-05-08 10:29 48.60441 11.36259 38737 ft 508 kts 119°
2026-05-08 10:29 48.58803 11.41007 38961 ft 508 kts 118°
2026-05-08 10:29 48.57195 11.45762 39216 ft 508 kts 118°
2026-05-08 10:30 48.56137 11.48912 39357 ft 508 kts 118°
2026-05-08 10:30 48.54536 11.53671 39574 ft 508 kts 117°
2026-05-08 10:30 48.53094 11.57946 39744 ft 508 kts 118°
2026-05-08 10:30 48.51476 11.62712 39923 ft 509 kts 118°
2026-05-08 10:31 48.49854 11.67470 40085 ft 509 kts 118°
2026-05-08 10:31 48.48232 11.72206 40264 ft 509 kts 118°
2026-05-08 10:31 48.46605 11.76943 40436 ft 509 kts 118°
2026-05-08 10:31 48.44967 11.81683 40620 ft 509 kts 118°
2026-05-08 10:32 48.43329 11.86401 40770 ft 509 kts 118°
2026-05-08 10:32 48.41711 11.91060 40914 ft 509 kts 118°
2026-05-08 10:32 48.40049 11.95835 40991 ft 509 kts 118°
2026-05-08 10:33 48.36750 12.05270 41003 ft 509 kts 118°
2026-05-08 10:33 48.33453 12.14611 41000 ft 509 kts 118°
2026-05-08 10:34 48.30134 12.24004 41000 ft 510 kts 118°
2026-05-08 10:34 48.26826 12.33405 41000 ft 509 kts 118°
2026-05-08 10:35 48.23488 12.42794 41003 ft 509 kts 118°
2026-05-08 10:35 48.20142 12.52139 41003 ft 508 kts 118°
2026-05-08 10:36 48.16793 12.61488 41001 ft 509 kts 119°
2026-05-08 10:36 48.13294 12.70707 41002 ft 509 kts 124°
2026-05-08 10:37 48.09364 12.79507 41003 ft 508 kts 125°
2026-05-08 10:37 48.05355 12.88222 41000 ft 508 kts 125°
2026-05-08 10:38 48.01322 12.96894 41006 ft 508 kts 126°
2026-05-08 10:38 47.97283 13.05549 41003 ft 508 kts 125°
2026-05-08 10:39 47.93282 13.14169 40999 ft 509 kts 125°
2026-05-08 10:39 47.89252 13.22847 41002 ft 509 kts 125°
2026-05-08 10:40 47.85208 13.31529 40998 ft 511 kts 125°
2026-05-08 10:40 47.81147 13.40186 40998 ft 509 kts 126°
2026-05-08 10:41 47.77082 13.48820 41001 ft 510 kts 126°
2026-05-08 10:41 47.72998 13.57466 40997 ft 512 kts 126°
2026-05-08 10:42 47.68913 13.66098 40993 ft 510 kts 126°
2026-05-08 10:42 47.64823 13.74711 40999 ft 512 kts 126°
2026-05-08 10:43 47.60713 13.83337 41000 ft 511 kts 126°
2026-05-08 10:43 47.56598 13.91942 41000 ft 513 kts 126°
2026-05-08 10:44 47.52484 14.00518 40998 ft 512 kts 126°
2026-05-08 10:44 47.48343 14.09120 41002 ft 513 kts 126°
2026-05-08 10:45 47.44225 14.17614 40995 ft 511 kts 127°
2026-05-08 10:45 47.40070 14.26208 41003 ft 517 kts 126°
2026-05-08 10:46 47.35890 14.34844 41002 ft 517 kts 126°
2026-05-08 10:46 47.31702 14.43444 41000 ft 515 kts 126°
2026-05-08 10:47 47.27517 14.51994 41000 ft 513 kts 127°
2026-05-08 10:47 47.23326 14.60513 41005 ft 514 kts 126°
2026-05-08 10:48 47.19153 14.69020 40998 ft 512 kts 126°
2026-05-08 10:48 47.14985 14.77484 40997 ft 510 kts 127°
2026-05-08 10:49 47.10817 14.85907 40999 ft 511 kts 127°
2026-05-08 10:49 47.06613 14.94374 40998 ft 514 kts 127°
2026-05-08 10:50 47.02397 15.02844 41004 ft 513 kts 127°
2026-05-08 10:50 46.98193 15.11244 41000 ft 510 kts 127°
2026-05-08 10:51 46.93995 15.19621 41003 ft 512 kts 127°
2026-05-08 10:51 46.89796 15.28008 41000 ft 509 kts 127°
2026-05-08 10:52 46.85632 15.36271 41002 ft 507 kts 127°
2026-05-08 10:52 46.81430 15.44534 40998 ft 507 kts 128°
2026-05-08 10:53 46.77212 15.52797 41002 ft 507 kts 128°
2026-05-08 10:53 46.73009 15.61047 41002 ft 507 kts 127°
2026-05-08 10:54 46.68880 15.69375 41003 ft 507 kts 126°
2026-05-08 10:54 46.64966 15.77918 41000 ft 507 kts 124°
2026-05-08 10:55 46.61097 15.86511 40999 ft 507 kts 123°
2026-05-08 10:55 46.57279 15.95036 41002 ft 507 kts 124°
2026-05-08 10:56 46.53385 16.03584 41000 ft 507 kts 124°
2026-05-08 10:56 46.49472 16.12109 40996 ft 507 kts 124°
2026-05-08 10:57 46.45543 16.20611 40998 ft 507 kts 124°
2026-05-08 10:57 46.39636 16.33313 41004 ft 507 kts 124°
2026-05-08 10:58 46.35691 16.41788 41003 ft 506 kts 124°
2026-05-08 10:58 46.31770 16.50156 41002 ft 506 kts 125°
2026-05-08 10:59 46.27809 16.58564 41001 ft 506 kts 124°
2026-05-08 10:59 46.23847 16.66985 40999 ft 506 kts 125°
2026-05-08 11:00 46.19891 16.75384 41000 ft 506 kts 125°
2026-05-08 11:00 46.15923 16.83790 41001 ft 506 kts 124°
2026-05-08 11:01 46.11950 16.92160 41003 ft 506 kts 125°
2026-05-08 11:01 46.07963 17.00525 40999 ft 506 kts 125°
2026-05-08 11:02 46.01991 17.12994 41001 ft 506 kts 126°
2026-05-08 11:03 45.97993 17.21315 41000 ft 506 kts 125°
2026-05-08 11:03 45.93992 17.29641 41003 ft 506 kts 125°
2026-05-08 11:04 45.90003 17.37946 41000 ft 506 kts 125°
2026-05-08 11:04 45.85998 17.46262 41003 ft 506 kts 125°
2026-05-08 11:05 45.81982 17.54555 40998 ft 506 kts 126°
2026-05-08 11:05 45.77955 17.62822 40998 ft 505 kts 126°
2026-05-08 11:06 45.73919 17.71081 41001 ft 506 kts 126°
2026-05-08 11:06 45.69890 17.79321 41003 ft 506 kts 126°
2026-05-08 11:07 45.65845 17.87559 40999 ft 506 kts 126°
2026-05-08 11:07 45.61802 17.95774 40999 ft 506 kts 126°
2026-05-08 11:08 45.57776 18.03930 41001 ft 506 kts 126°
2026-05-08 11:08 45.53716 18.12124 41000 ft 506 kts 126°
2026-05-08 11:09 45.49651 18.20308 41002 ft 506 kts 126°
2026-05-08 11:09 45.45586 18.28479 40998 ft 506 kts 126°
2026-05-08 11:10 45.41517 18.36634 40999 ft 506 kts 126°
2026-05-08 11:10 45.37430 18.44794 40998 ft 505 kts 126°
2026-05-08 11:11 45.33337 18.52931 41002 ft 506 kts 126°
2026-05-08 11:11 45.29239 18.61049 41000 ft 506 kts 126°
2026-05-08 11:12 45.25139 18.69156 41001 ft 505 kts 126°
2026-05-08 11:12 45.21037 18.77259 40999 ft 505 kts 126°
2026-05-08 11:13 45.16922 18.85353 41000 ft 505 kts 126°
2026-05-08 11:13 45.12813 18.93438 41004 ft 505 kts 126°
2026-05-08 11:14 45.08705 19.01504 40996 ft 505 kts 126°
2026-05-08 11:14 45.04585 19.09546 40999 ft 505 kts 127°
2026-05-08 11:15 45.00447 19.17587 40998 ft 505 kts 127°
2026-05-08 11:15 44.96299 19.25612 40999 ft 506 kts 127°
2026-05-08 11:16 44.92168 19.33572 41004 ft 506 kts 127°
2026-05-08 11:16 44.88008 19.41560 41002 ft 505 kts 127°
2026-05-08 11:17 44.83840 19.49551 41000 ft 505 kts 127°
2026-05-08 11:17 44.79679 19.57533 40999 ft 505 kts 127°
2026-05-08 11:18 44.75519 19.65499 40999 ft 505 kts 127°
2026-05-08 11:18 44.71348 19.73461 41001 ft 505 kts 127°
2026-05-08 11:19 44.67175 19.81405 41001 ft 505 kts 127°
2026-05-08 11:19 44.62991 19.89350 41002 ft 506 kts 127°
2026-05-08 11:20 44.59509 19.95945 41000 ft 506 kts 127°
2026-05-08 11:20 44.54634 20.05146 40999 ft 505 kts 127°
2026-05-08 11:21 44.51132 20.11788 41003 ft 506 kts 127°
2026-05-08 11:21 44.46948 20.19703 41000 ft 505 kts 127°
2026-05-08 11:22 44.42769 20.27531 41001 ft 505 kts 127°
2026-05-08 11:22 44.38558 20.35410 40998 ft 505 kts 127°
2026-05-08 11:23 44.34338 20.43278 40998 ft 506 kts 127°
2026-05-08 11:23 44.30114 20.51130 40999 ft 506 kts 128°
2026-05-08 11:24 44.25859 20.59000 41003 ft 508 kts 128°
2026-05-08 11:24 44.21597 20.66858 41003 ft 507 kts 128°
2026-05-08 11:25 44.17352 20.74695 41000 ft 507 kts 128°
2026-05-08 11:25 44.13099 20.82521 41001 ft 507 kts 128°
2026-05-08 11:26 44.08841 20.90327 41004 ft 507 kts 128°
2026-05-08 11:26 44.04572 20.98128 41001 ft 506 kts 128°
2026-05-08 11:27 44.00306 21.05901 41002 ft 506 kts 128°
2026-05-08 11:27 43.96030 21.13680 41001 ft 507 kts 129°
2026-05-08 11:28 43.91733 21.21364 41005 ft 506 kts 129°
2026-05-08 11:28 43.87412 21.29080 41000 ft 506 kts 129°
2026-05-08 11:29 43.83104 21.36812 41000 ft 506 kts 129°
2026-05-08 11:29 43.78810 21.44536 41002 ft 506 kts 129°
2026-05-08 11:30 43.74514 21.52248 40999 ft 506 kts 129°
2026-05-08 11:30 43.70214 21.59957 41002 ft 506 kts 129°
2026-05-08 11:31 43.65874 21.67566 41000 ft 508 kts 130°
2026-05-08 11:31 43.61404 21.75098 40999 ft 507 kts 130°
2026-05-08 11:32 43.56887 21.82589 41000 ft 508 kts 130°
2026-05-08 11:32 43.52349 21.90070 41001 ft 508 kts 130°
2026-05-08 11:33 43.47824 21.97542 41000 ft 508 kts 130°
2026-05-08 11:33 43.43302 22.05015 41003 ft 508 kts 130°
2026-05-08 11:34 43.38773 22.12471 40999 ft 507 kts 131°
2026-05-08 11:34 43.34224 22.19900 41000 ft 510 kts 131°
2026-05-08 11:35 43.29690 22.27319 41006 ft 511 kts 130°
2026-05-08 11:35 43.25132 22.34773 41001 ft 509 kts 130°
2026-05-08 11:36 43.20578 22.42201 41000 ft 507 kts 131°
2026-05-08 11:36 43.16014 22.49583 41002 ft 508 kts 131°
2026-05-08 11:37 43.11476 22.56935 41002 ft 507 kts 131°
2026-05-08 11:37 43.06927 22.64317 40998 ft 507 kts 131°
2026-05-08 11:38 43.02371 22.71677 41001 ft 507 kts 131°
2026-05-08 11:38 42.97781 22.78938 40998 ft 507 kts 135°
2026-05-08 11:39 42.92642 22.85523 41002 ft 507 kts 139°
2026-05-08 11:39 42.87368 22.91930 40998 ft 507 kts 140°
2026-05-08 11:40 42.82075 22.98300 41001 ft 507 kts 139°
2026-05-08 11:40 42.76801 23.04678 41002 ft 508 kts 139°
2026-05-08 11:41 42.71518 23.11072 41000 ft 508 kts 139°
2026-05-08 11:41 42.66237 23.17443 40999 ft 508 kts 139°
2026-05-08 11:42 42.60937 23.23812 41000 ft 509 kts 139°
2026-05-08 11:42 42.55614 23.30221 40998 ft 514 kts 139°
2026-05-08 11:43 42.50336 23.36805 41000 ft 515 kts 138°
2026-05-08 11:43 42.45135 23.43413 40993 ft 512 kts 137°
2026-05-08 11:44 42.39942 23.49991 41001 ft 511 kts 138°
2026-05-08 11:44 42.34732 23.56507 41002 ft 509 kts 139°
2026-05-08 11:45 42.29553 23.62965 41007 ft 510 kts 138°
2026-05-08 11:45 42.24350 23.69485 40997 ft 511 kts 138°
2026-05-08 11:46 42.19113 23.76022 40999 ft 515 kts 138°
2026-05-08 11:46 42.13827 23.82589 41001 ft 518 kts 138°
2026-05-08 11:47 42.08524 23.89162 41001 ft 516 kts 138°
2026-05-08 11:47 42.03247 23.95690 41001 ft 513 kts 138°
2026-05-08 11:48 41.98008 24.02151 41002 ft 510 kts 138°
2026-05-08 11:48 41.92775 24.08591 41003 ft 511 kts 138°
2026-05-08 11:49 41.87508 24.15054 41001 ft 514 kts 139°
2026-05-08 11:49 41.82220 24.21527 40998 ft 514 kts 138°
2026-05-08 11:50 41.76927 24.27994 41003 ft 513 kts 138°
2026-05-08 11:50 41.71653 24.34397 40999 ft 512 kts 139°
2026-05-08 11:51 41.66418 24.40776 40997 ft 511 kts 139°
2026-05-08 11:51 41.61138 24.47179 41003 ft 514 kts 139°
2026-05-08 11:52 41.55836 24.53602 41007 ft 515 kts 139°
2026-05-08 11:52 41.50537 24.60015 41002 ft 514 kts 139°
2026-05-08 11:53 41.45236 24.66388 40999 ft 511 kts 139°
2026-05-08 11:53 41.39943 24.72722 41004 ft 512 kts 139°
2026-05-08 11:54 41.34619 24.79043 40999 ft 514 kts 139°
2026-05-08 11:54 41.29276 24.85348 41005 ft 512 kts 139°
2026-05-08 11:55 41.23966 24.91613 40999 ft 508 kts 139°
2026-05-08 11:55 41.18690 24.97826 41001 ft 506 kts 139°
2026-05-08 11:56 41.13400 25.04031 41000 ft 507 kts 139°
2026-05-08 11:56 41.08167 25.10162 41000 ft 503 kts 139°
2026-05-08 11:57 41.02931 25.16290 41001 ft 502 kts 140°
2026-05-08 11:57 40.97676 25.22382 40998 ft 502 kts 140°
2026-05-08 11:58 40.92417 25.28493 41000 ft 502 kts 139°
2026-05-08 11:58 40.87469 25.35025 40999 ft 503 kts 134°
2026-05-08 11:59 40.80327 25.45195 40999 ft 504 kts 134°
2026-05-08 11:59 40.75613 25.51965 41001 ft 504 kts 134°
2026-05-08 12:00 40.70867 25.58749 41000 ft 504 kts 134°
2026-05-08 12:00 40.66107 25.65525 40999 ft 504 kts 134°
2026-05-08 12:01 40.61344 25.72285 40999 ft 504 kts 134°
2026-05-08 12:01 40.56575 25.79039 41001 ft 504 kts 134°
2026-05-08 12:02 40.51804 25.85783 41000 ft 504 kts 134°
2026-05-08 12:02 40.47079 25.92574 41000 ft 504 kts 133°
2026-05-08 12:03 40.42441 25.99475 40999 ft 504 kts 133°
2026-05-08 12:03 40.37819 26.06402 41002 ft 504 kts 133°
2026-05-08 12:04 40.33198 26.13303 40999 ft 504 kts 133°
2026-05-08 12:04 40.28589 26.20156 41000 ft 504 kts 133°
2026-05-08 12:05 40.23953 26.27027 41001 ft 504 kts 133°
2026-05-08 12:05 40.19314 26.33906 41005 ft 504 kts 132°
2026-05-08 12:06 40.14704 26.40820 41002 ft 504 kts 132°
2026-05-08 12:06 40.09920 26.47504 41001 ft 503 kts 136°
2026-05-08 12:07 40.04899 26.53889 41003 ft 504 kts 137°
2026-05-08 12:07 39.99869 26.60207 41001 ft 505 kts 137°
2026-05-08 12:08 39.94822 26.66600 41003 ft 507 kts 137°
2026-05-08 12:08 39.89789 26.73007 40999 ft 505 kts 136°
2026-05-08 12:09 39.84782 26.79432 41000 ft 505 kts 136°
2026-05-08 12:09 39.79762 26.85845 41001 ft 506 kts 136°
2026-05-08 12:10 39.74709 26.92221 40999 ft 508 kts 137°
2026-05-08 12:10 39.69557 26.98545 40999 ft 510 kts 137°
2026-05-08 12:11 39.64395 27.04847 41002 ft 507 kts 137°
2026-05-08 12:11 39.59274 27.11097 41001 ft 504 kts 137°
2026-05-08 12:12 39.54169 27.17324 41001 ft 504 kts 137°
2026-05-08 12:12 39.49195 27.23735 41000 ft 506 kts 133°
2026-05-08 12:13 39.45360 27.29497 41001 ft 508 kts 131°
2026-05-08 12:13 39.40851 27.36533 41000 ft 508 kts 130°
2026-05-08 12:14 39.36372 27.43599 41000 ft 508 kts 130°
2026-05-08 12:14 39.31861 27.50655 41001 ft 508 kts 130°
2026-05-08 12:15 39.27364 27.57648 41002 ft 506 kts 130°
2026-05-08 12:15 39.22874 27.64670 41004 ft 506 kts 130°
2026-05-08 12:16 39.18377 27.71650 41002 ft 506 kts 131°
2026-05-08 12:16 39.13893 27.78554 40999 ft 506 kts 131°
2026-05-08 12:17 39.09373 27.85506 41001 ft 506 kts 131°
2026-05-08 12:17 39.04860 27.92463 40999 ft 506 kts 130°
2026-05-08 12:18 39.00346 27.99423 41002 ft 507 kts 130°
2026-05-08 12:18 38.95805 28.06394 41001 ft 510 kts 130°
2026-05-08 12:19 38.91247 28.13362 40999 ft 509 kts 131°
2026-05-08 12:19 38.86687 28.20314 41000 ft 509 kts 131°
2026-05-08 12:20 38.82122 28.27257 41003 ft 508 kts 131°
2026-05-08 12:20 38.77566 28.34176 41000 ft 508 kts 131°
2026-05-08 12:21 38.73011 28.41078 41002 ft 507 kts 131°
2026-05-08 12:21 38.68484 28.47922 41001 ft 507 kts 131°
2026-05-08 12:22 38.63916 28.54809 40999 ft 508 kts 131°
2026-05-08 12:22 38.59274 28.61621 40996 ft 508 kts 136°
2026-05-08 12:23 38.53832 28.67344 41003 ft 506 kts 144°
2026-05-08 12:23 38.48092 28.72556 40998 ft 506 kts 146°
2026-05-08 12:24 38.42309 28.77662 41000 ft 506 kts 146°
2026-05-08 12:24 38.36511 28.82792 41004 ft 507 kts 146°
2026-05-08 12:25 38.30726 28.87935 41003 ft 507 kts 146°
2026-05-08 12:25 38.24938 28.93081 40999 ft 508 kts 146°
2026-05-08 12:26 38.19136 28.98220 41000 ft 508 kts 146°
2026-05-08 12:26 38.13342 29.03348 41001 ft 507 kts 146°
2026-05-08 12:27 38.07560 29.08455 40998 ft 506 kts 146°
2026-05-08 12:27 38.01771 29.13565 40999 ft 508 kts 146°
2026-05-08 12:28 37.95967 29.18679 41002 ft 509 kts 146°
2026-05-08 12:28 37.90189 29.23752 40998 ft 508 kts 146°
2026-05-08 12:29 37.84394 29.28836 41001 ft 506 kts 146°
2026-05-08 12:29 37.78621 29.33907 41000 ft 505 kts 146°
2026-05-08 12:30 37.72849 29.38964 41000 ft 506 kts 146°
2026-05-08 12:30 37.67038 29.44021 41000 ft 509 kts 146°
2026-05-08 12:31 37.61189 29.49105 40999 ft 511 kts 146°
2026-05-08 12:31 37.55324 29.54198 41001 ft 513 kts 146°
2026-05-08 12:32 37.49459 29.59277 41002 ft 511 kts 147°
2026-05-08 12:32 37.43603 29.64339 41002 ft 512 kts 146°
2026-05-08 12:33 37.37724 29.69419 41001 ft 513 kts 146°
2026-05-08 12:33 37.31845 29.74499 40999 ft 513 kts 146°
2026-05-08 12:34 37.25974 29.79566 40999 ft 510 kts 146°
2026-05-08 12:34 37.20165 29.84565 40999 ft 510 kts 147°
2026-05-08 12:35 37.14288 29.89604 41004 ft 512 kts 147°
2026-05-08 12:35 37.08404 29.94651 41000 ft 512 kts 147°
2026-05-08 12:36 37.02500 29.99665 41001 ft 512 kts 148°
2026-05-08 12:36 36.96587 30.04636 41000 ft 512 kts 148°
2026-05-08 12:37 36.90691 30.09630 41000 ft 511 kts 147°
2026-05-08 12:37 36.84813 30.14630 41003 ft 511 kts 147°
2026-05-08 12:38 36.78968 30.19595 41002 ft 511 kts 147°
2026-05-08 12:38 36.73077 30.24586 41000 ft 513 kts 147°
2026-05-08 12:39 36.67155 30.29591 41005 ft 515 kts 147°
2026-05-08 12:39 36.61258 30.34579 41002 ft 509 kts 147°
2026-05-08 12:40 36.55440 30.39564 40999 ft 508 kts 146°
2026-05-08 12:40 36.49581 30.44553 41001 ft 511 kts 147°
2026-05-08 12:41 36.43729 30.49471 40998 ft 504 kts 147°
2026-05-08 12:41 36.37939 30.54321 41000 ft 501 kts 147°
2026-05-08 12:42 36.32158 30.59154 41000 ft 501 kts 147°
2026-05-08 12:42 36.26421 30.63941 41000 ft 501 kts 147°
2026-05-08 12:43 36.20635 30.68761 41000 ft 501 kts 147°
2026-05-08 12:43 36.14815 30.73600 41000 ft 501 kts 147°
2026-05-08 12:44 36.09020 30.78390 41000 ft 500 kts 149°
2026-05-08 12:44 36.02730 30.81919 41000 ft 496 kts 166°
2026-05-08 12:45 35.95934 30.83117 41002 ft 493 kts 177°
2026-05-08 12:45 35.89072 30.83548 41000 ft 493 kts 179°
2026-05-08 12:46 35.82269 30.83876 40999 ft 493 kts 179°
2026-05-08 12:46 35.75409 30.84246 41001 ft 493 kts 179°
2026-05-08 12:47 35.68551 30.84650 40998 ft 493 kts 179°
2026-05-08 12:47 35.61695 30.85061 40998 ft 493 kts 179°
2026-05-08 12:48 35.54841 30.85344 41001 ft 493 kts 180°
2026-05-08 12:48 35.47987 30.85553 41002 ft 493 kts 180°
2026-05-08 12:49 35.41134 30.85765 41000 ft 493 kts 180°
2026-05-08 12:49 35.34275 30.85989 40998 ft 493 kts 180°
2026-05-08 12:50 35.27463 30.86217 41002 ft 493 kts 180°
2026-05-08 12:50 35.20612 30.86447 41004 ft 493 kts 180°
2026-05-08 12:51 35.10330 30.86791 40999 ft 493 kts 180°
2026-05-08 12:52 35.03477 30.87019 41001 ft 493 kts 180°
2026-05-08 12:52 34.93193 30.87360 40998 ft 493 kts 180°
2026-05-08 12:53 34.86341 30.87587 40998 ft 493 kts 180°
2026-05-08 12:53 34.79484 30.87814 41001 ft 493 kts 180°
2026-05-08 12:54 34.72634 30.88041 40999 ft 493 kts 180°
2026-05-08 12:54 34.65774 30.88267 41003 ft 493 kts 180°
2026-05-08 12:55 34.58921 30.88516 40999 ft 493 kts 179°
2026-05-08 12:55 34.52065 30.88850 40999 ft 493 kts 179°
2026-05-08 12:56 34.45206 30.89203 41001 ft 493 kts 179°
2026-05-08 12:56 34.38392 30.89546 40999 ft 493 kts 179°
2026-05-08 12:57 34.31493 30.89885 41000 ft 493 kts 179°
2026-05-08 12:57 34.24688 30.90217 40999 ft 493 kts 179°
2026-05-08 12:58 34.17834 30.90523 41002 ft 493 kts 179°
2026-05-08 12:58 34.10928 30.90813 40998 ft 493 kts 179°
2026-05-08 12:59 34.04125 30.91099 40999 ft 493 kts 179°
2026-05-08 12:59 33.97265 30.91390 40998 ft 493 kts 179°
2026-05-08 13:00 33.90418 30.91681 40999 ft 493 kts 179°
2026-05-08 13:00 33.84715 30.91923 41001 ft 493 kts 179°
2026-05-08 13:01 33.77852 30.92215 40999 ft 493 kts 179°
2026-05-08 13:01 33.71004 30.92505 41001 ft 493 kts 179°
2026-05-08 13:02 33.64143 30.92795 40999 ft 493 kts 179°
2026-05-08 13:02 33.57295 30.93084 41000 ft 493 kts 179°
2026-05-08 13:03 33.50435 30.93373 41003 ft 493 kts 179°
2026-05-08 13:03 33.43567 30.93662 41001 ft 493 kts 179°
2026-05-08 13:04 33.36718 30.93950 40998 ft 493 kts 179°
2026-05-08 13:04 33.29864 30.94237 40999 ft 493 kts 179°
2026-05-08 13:05 33.23057 30.94522 40999 ft 493 kts 179°
2026-05-08 13:05 33.16199 30.94809 41003 ft 493 kts 179°
2026-05-08 13:06 33.09347 30.95117 41000 ft 493 kts 179°
2026-05-08 13:06 33.02498 30.95721 41001 ft 494 kts 177°
2026-05-08 13:07 32.95662 30.96495 40999 ft 494 kts 176°
2026-05-08 13:07 32.88822 30.97291 41002 ft 494 kts 176°
2026-05-08 13:08 32.81977 30.98069 41003 ft 494 kts 176°
2026-05-08 13:08 32.75139 30.98833 41003 ft 494 kts 176°
2026-05-08 13:09 32.68291 30.99594 41001 ft 494 kts 176°
2026-05-08 13:09 32.61450 31.00354 40998 ft 494 kts 176°
2026-05-08 13:10 32.54610 31.01113 40999 ft 494 kts 176°
2026-05-08 13:10 32.47775 31.01870 40998 ft 494 kts 176°
2026-05-08 13:11 32.40928 31.02628 41003 ft 494 kts 176°
2026-05-08 13:11 32.34088 31.03384 41000 ft 494 kts 176°
2026-05-08 13:12 32.27245 31.04139 41002 ft 494 kts 176°
2026-05-08 13:12 32.20445 31.04888 40999 ft 494 kts 176°
2026-05-08 13:13 32.13562 31.05645 41001 ft 494 kts 176°
2026-05-08 13:13 32.06765 31.06391 41000 ft 494 kts 176°
2026-05-08 13:14 31.99933 31.07137 40998 ft 494 kts 177°
2026-05-08 13:14 31.93087 31.07875 40999 ft 494 kts 177°
2026-05-08 13:15 31.86252 31.08608 40999 ft 494 kts 177°
2026-05-08 13:15 31.79397 31.09344 40998 ft 494 kts 177°
2026-05-08 13:16 31.72557 31.10078 41001 ft 494 kts 177°
2026-05-08 13:16 31.65714 31.10811 41001 ft 494 kts 177°
2026-05-08 13:17 31.58867 31.11543 41001 ft 494 kts 177°
2026-05-08 13:17 31.52025 31.12310 41002 ft 494 kts 175°
2026-05-08 13:18 31.45219 31.13499 40998 ft 495 kts 171°
2026-05-08 13:18 31.38481 31.14908 41000 ft 495 kts 171°
2026-05-08 13:19 31.31698 31.16271 40997 ft 495 kts 172°
2026-05-08 13:19 31.24892 31.17575 41000 ft 495 kts 172°
2026-05-08 13:20 31.18092 31.18845 40999 ft 495 kts 172°
2026-05-08 13:20 31.11330 31.20098 41004 ft 495 kts 172°
2026-05-08 13:21 31.04530 31.21357 41003 ft 495 kts 172°
2026-05-08 13:21 30.97733 31.22614 41003 ft 495 kts 172°
2026-05-08 13:22 30.90941 31.23867 41009 ft 495 kts 172°
2026-05-08 13:22 30.84144 31.25136 41002 ft 495 kts 172°
2026-05-08 13:23 30.77345 31.26398 41000 ft 495 kts 172°
2026-05-08 13:23 30.70535 31.27654 41000 ft 495 kts 172°
2026-05-08 13:24 30.63739 31.28902 41000 ft 495 kts 173°
2026-05-08 13:24 30.56932 31.30141 41001 ft 495 kts 172°
2026-05-08 13:25 30.50131 31.31394 40998 ft 495 kts 172°
2026-05-08 13:25 30.43332 31.32652 41002 ft 495 kts 172°
2026-05-08 13:26 30.36534 31.33903 41002 ft 495 kts 173°
2026-05-08 13:26 30.29735 31.35146 41001 ft 495 kts 172°
2026-05-08 13:27 30.22988 31.36388 40999 ft 495 kts 172°
2026-05-08 13:27 30.16180 31.37636 41001 ft 495 kts 172°
2026-05-08 13:28 30.09636 31.38896 40997 ft 496 kts 169°
2026-05-08 13:28 30.02940 31.40903 41001 ft 497 kts 167°
2026-05-08 13:29 29.96267 31.43063 40999 ft 498 kts 166°
2026-05-08 13:29 29.89601 31.45275 40999 ft 498 kts 166°
2026-05-08 13:30 29.82934 31.47492 41002 ft 498 kts 166°
2026-05-08 13:30 29.76271 31.49699 41001 ft 498 kts 166°
2026-05-08 13:31 29.69597 31.51903 41001 ft 498 kts 166°
2026-05-08 13:31 29.62928 31.54092 41000 ft 499 kts 166°
2026-05-08 13:32 29.56248 31.56274 41000 ft 499 kts 166°
2026-05-08 13:32 29.49614 31.58441 40998 ft 499 kts 166°
2026-05-08 13:33 29.42927 31.60624 41001 ft 500 kts 166°
2026-05-08 13:33 29.36219 31.62810 41000 ft 500 kts 166°
2026-05-08 13:34 29.29532 31.64988 41000 ft 500 kts 166°
2026-05-08 13:34 29.22828 31.67167 41003 ft 500 kts 166°
2026-05-08 13:35 29.16129 31.69342 41000 ft 500 kts 166°
2026-05-08 13:35 29.09439 31.71511 41000 ft 499 kts 166°
2026-05-08 13:36 29.02754 31.73675 41000 ft 499 kts 166°
2026-05-08 13:36 28.96081 31.75826 41001 ft 499 kts 166°
2026-05-08 13:37 28.89387 31.77958 41001 ft 499 kts 166°
2026-05-08 13:37 28.82743 31.80066 41000 ft 498 kts 166°
2026-05-08 13:38 28.76061 31.82186 41001 ft 498 kts 166°
2026-05-08 13:38 28.69377 31.84305 41000 ft 499 kts 166°
2026-05-08 13:39 28.62691 31.86421 40998 ft 499 kts 166°
2026-05-08 13:39 28.55992 31.88540 41003 ft 499 kts 166°
2026-05-08 13:40 28.49304 31.90653 40999 ft 500 kts 166°
2026-05-08 13:40 28.42585 31.92771 40999 ft 500 kts 166°
2026-05-08 13:41 28.35880 31.94883 41003 ft 501 kts 166°
2026-05-08 13:41 28.29150 31.97000 41000 ft 500 kts 166°
2026-05-08 13:42 28.22495 31.99090 41000 ft 500 kts 166°
2026-05-08 13:42 28.15790 32.01195 40999 ft 500 kts 166°
2026-05-08 13:43 28.09796 32.03073 41000 ft 501 kts 166°
2026-05-08 13:43 28.03078 32.05177 41001 ft 501 kts 166°
2026-05-08 13:44 27.96371 32.07312 41000 ft 501 kts 166°
2026-05-08 13:44 27.89662 32.09465 41000 ft 501 kts 166°
2026-05-08 13:45 27.82958 32.11613 41000 ft 501 kts 166°
2026-05-08 13:45 27.76251 32.13753 40999 ft 501 kts 166°
2026-05-08 13:46 27.69537 32.15893 41003 ft 501 kts 166°
2026-05-08 13:46 27.62833 32.18027 40998 ft 501 kts 166°
2026-05-08 13:47 27.57258 32.19799 40999 ft 501 kts 166°
2026-05-08 13:47 27.50550 32.21930 41002 ft 501 kts 166°
2026-05-08 13:48 27.43839 32.24059 41002 ft 501 kts 166°
2026-05-08 13:48 27.37136 32.26182 41002 ft 501 kts 166°
2026-05-08 13:49 27.30422 32.28305 41001 ft 501 kts 166°
2026-05-08 13:49 27.23714 32.30425 41001 ft 501 kts 166°
2026-05-08 13:50 27.17047 32.32530 41000 ft 501 kts 166°
2026-05-08 13:50 27.10341 32.34644 40999 ft 501 kts 166°
2026-05-08 13:51 27.03634 32.36756 41000 ft 500 kts 166°
2026-05-08 13:51 26.96926 32.38866 41000 ft 501 kts 166°
2026-05-08 13:52 26.90213 32.40975 40999 ft 501 kts 166°
2026-05-08 13:52 26.83500 32.43082 40998 ft 500 kts 166°
2026-05-08 13:53 26.76808 32.45239 40999 ft 501 kts 162°
2026-05-08 13:53 26.70571 32.48756 40999 ft 505 kts 146°
2026-05-08 13:54 26.65462 32.54154 41001 ft 507 kts 133°
2026-05-08 13:54 26.61000 32.60205 41001 ft 508 kts 130°
2026-05-08 13:55 26.56611 32.66379 41000 ft 508 kts 130°
2026-05-08 13:56 26.49927 32.75547 40999 ft 506 kts 131°
2026-05-08 13:56 26.45432 32.81611 41000 ft 505 kts 131°
2026-05-08 13:57 26.40950 32.87643 41000 ft 505 kts 131°
2026-05-08 13:57 26.36457 32.93690 40999 ft 505 kts 131°
2026-05-08 13:58 26.31961 32.99734 41000 ft 506 kts 131°
2026-05-08 13:58 26.27491 33.05735 41000 ft 506 kts 131°
2026-05-08 13:59 26.22995 33.11766 41001 ft 506 kts 131°
2026-05-08 13:59 26.18487 33.17803 40773 ft 506 kts 131°
2026-05-08 13:59 26.16237 33.20813 40527 ft 506 kts 131°
2026-05-08 14:00 26.13983 33.23823 40278 ft 506 kts 131°
2026-05-08 14:00 26.11733 33.26826 39787 ft 505 kts 131°
2026-05-08 14:00 26.09476 33.29835 39027 ft 506 kts 131°
2026-05-08 14:00 26.07222 33.32840 38278 ft 507 kts 131°
2026-05-08 14:01 26.04958 33.35857 37538 ft 508 kts 131°
2026-05-08 14:01 26.02685 33.38885 36779 ft 509 kts 131°
2026-05-08 14:01 26.00420 33.41902 36004 ft 509 kts 131°
2026-05-08 14:01 25.98149 33.44931 35185 ft 510 kts 131°
2026-05-08 14:02 25.95907 33.47930 34336 ft 511 kts 131°
2026-05-08 14:02 25.93607 33.51008 33383 ft 513 kts 130°
2026-05-08 14:02 25.91321 33.54064 32438 ft 515 kts 130°
2026-05-08 14:02 25.89022 33.57138 31445 ft 518 kts 130°
2026-05-08 14:03 25.86713 33.60217 30406 ft 520 kts 131°
2026-05-08 14:03 25.84387 33.63295 29370 ft 521 kts 131°
2026-05-08 14:03 25.82048 33.66380 28454 ft 520 kts 131°
2026-05-08 14:03 25.79754 33.69401 27625 ft 516 kts 131°
2026-05-08 14:04 25.77423 33.72474 26822 ft 512 kts 131°
2026-05-08 14:04 25.75170 33.75444 26070 ft 507 kts 131°
2026-05-08 14:04 25.72908 33.78427 25325 ft 502 kts 131°
2026-05-08 14:04 25.70680 33.81364 24598 ft 497 kts 131°
2026-05-08 14:05 25.68465 33.84282 23838 ft 492 kts 131°
2026-05-08 14:05 25.66278 33.87171 23083 ft 487 kts 131°
2026-05-08 14:05 25.64109 33.90029 22348 ft 481 kts 131°
2026-05-08 14:05 25.61967 33.92849 21590 ft 476 kts 131°
2026-05-08 14:06 25.59841 33.95641 20832 ft 471 kts 131°
2026-05-08 14:06 25.57734 33.98403 20058 ft 466 kts 131°
2026-05-08 14:06 25.55650 34.01132 19292 ft 461 kts 131°
2026-05-08 14:06 25.53597 34.03826 18531 ft 457 kts 131°
2026-05-08 14:07 25.51553 34.06509 17783 ft 452 kts 131°
2026-05-08 14:07 25.49538 34.09150 17007 ft 447 kts 131°
2026-05-08 14:07 25.47647 34.11858 16215 ft 444 kts 123°
2026-05-08 14:07 25.46362 34.14943 15461 ft 440 kts 110°
2026-05-08 14:08 25.45411 34.18135 14700 ft 435 kts 108°
2026-05-08 14:08 25.44495 34.21315 13928 ft 430 kts 108°
2026-05-08 14:08 25.43584 34.24446 13324 ft 422 kts 109°
2026-05-08 14:08 25.42683 34.27484 12691 ft 414 kts 109°
2026-05-08 14:09 25.41784 34.30503 11872 ft 412 kts 109°
2026-05-08 14:09 25.40900 34.33463 11548 ft 397 kts 109°
2026-05-08 14:09 25.40060 34.36272 11157 ft 372 kts 109°
2026-05-08 14:09 25.39276 34.38896 10609 ft 346 kts 109°
2026-05-08 14:10 25.38546 34.41336 10252 ft 320 kts 109°
2026-05-08 14:10 25.37862 34.43614 9514 ft 310 kts 109°
2026-05-08 14:10 25.37186 34.45883 8643 ft 308 kts 109°
2026-05-08 14:10 25.36531 34.48080 8131 ft 295 kts 109°
2026-05-08 14:11 25.35902 34.50191 7681 ft 300 kts 109°
2026-05-08 14:11 25.35229 34.52440 7241 ft 300 kts 109°
2026-05-08 14:11 25.34573 34.54629 6837 ft 299 kts 109°
2026-05-08 14:11 25.34062 34.56821 6364 ft 299 kts 96°
2026-05-08 14:12 25.34357 34.59056 5972 ft 295 kts 66°
2026-05-08 14:12 25.35322 34.61059 5425 ft 287 kts 58°
2026-05-08 14:12 25.36334 34.62911 4745 ft 281 kts 57°
2026-05-08 14:12 25.37311 34.64698 4420 ft 262 kts 57°
2026-05-08 14:13 25.38234 34.66366 4112 ft 244 kts 53°
2026-05-08 14:13 25.39475 34.67483 3764 ft 224 kts 16°
2026-05-08 14:13 25.40943 34.67607 3522 ft 206 kts 351°
2026-05-08 14:13 25.42258 34.67194 3370 ft 187 kts 329°
2026-05-08 14:14 25.43305 34.66434 3138 ft 175 kts 321°
2026-05-08 14:14 25.44326 34.65674 2676 ft 180 kts 324°
2026-05-08 14:14 25.45426 34.65011 2302 ft 176 kts 329°
2026-05-08 14:14 25.46428 34.64375 2106 ft 157 kts 325°
2026-05-08 14:15 25.47325 34.63780 1872 ft 145 kts 324°
2026-05-08 14:15 25.48159 34.63240 1695 ft 134 kts 326°
2026-05-08 14:15 25.48947 34.62738 1515 ft 128 kts 326°
2026-05-08 14:15 25.49724 34.62256 1365 ft 128 kts 327°
2026-05-08 14:16 25.50497 34.61756 1209 ft 128 kts 326°
2026-05-08 14:16 25.51255 34.61239 1035 ft 129 kts 324°
2026-05-08 14:16 25.52038 34.60757 847 ft 129 kts 326°
2026-05-08 14:16 25.52813 34.60251 696 ft 129 kts 325°
2026-05-08 14:17 25.53585 34.59746 519 ft 129 kts 327°
2026-05-08 14:17 25.54357 34.59246 357 ft 129 kts 326°
2026-05-08 14:17 25.55109 34.58763 265 ft 123 kts 328°
2026-05-08 14:17 25.55686 34.58397 268 ft 54 kts 330°
2026-05-08 14:18 25.55944 34.58232 269 ft 26 kts 330°
2026-05-08 14:18 25.56058 34.58185 266 ft 11 kts 356°
2026-05-08 14:18 25.56106 34.58165 266 ft 3 kts 281°
2026-05-08 14:18 25.56098 34.58158 266 ft 1 kts 218°
2026-05-08 14:19 25.56063 34.58164 266 ft 11 kts 164°
2026-05-08 14:19 25.55962 34.58220 269 ft 19 kts 150°
2026-05-08 14:19 25.55839 34.58298 268 ft 22 kts 149°
2026-05-08 14:19 25.55695 34.58391 267 ft 24 kts 150°
2026-05-08 14:20 25.55567 34.58472 265 ft 19 kts 150°
2026-05-08 14:20 25.55495 34.58538 263 ft 13 kts 114°
2026-05-08 14:20 25.55520 34.58633 262 ft 15 kts 58°
2026-05-08 14:20 25.55580 34.58747 258 ft 16 kts 62°
2026-05-08 14:21 25.55628 34.58853 249 ft 11 kts 82°
2026-05-08 14:21 25.55585 34.58920 248 ft 12 kts 144°
2026-05-08 14:21 25.55507 34.58971 248 ft 12 kts 152°
2026-05-08 14:21 25.55488 34.58987 248 ft 3 kts 131°
2026-05-08 14:22 25.55488 34.59006 248 ft 3 kts 81°
2026-05-08 14:22 25.55502 34.59042 248 ft 7 kts 62°
2026-05-08 14:22 25.55507 34.59053 248 ft 2 kts 62°
2026-05-08 14:22 25.55516 34.59070 248 ft 0 kts 61°